DECAYED

STARLINK-1336, 45557 (Decayed)

Orbit data source: Space-Track

STARLINK-1336, 45557 was a payload satellite owned by SpaceX/Seattle (US) in LEO that was launched on Wed, 22 Apr 2020 UTC via an FALCON 9 launch vehicle from the Air Force Eastern Test Range (AFETR). Payload-class satellites include a variety of spacecraft equipped with specific instruments for various scientific and technological missions. These include communications satellites like Starlink; space stations such as the ISS; scientific satellites like the Hubble; Earth observation satellites from companies like Planet Labs, Umbra, and HawkEye 360; GPS; miniature CubeSats for education and research; and military/defense satellites.

Not visible in the next 10 days
Identifier
45557, 2020-025AC
Orbit
Decayed
Country
Flag of USUS
Related business
Manufacturer
SpaceX/Seattle
Mission
Decayed Commercial Communications
Bus & Motor
STARLINK, Unknown motor
Mass
260 kg wet, ~248 kg dry
Launch date (UTC)
2020-04-22 (6 years ago)
Launch vehicle
FALCON 9
Launch site
Air Force Eastern Test Range (AFETR)
Object type
Payload
Rocket body
Debris
Shape & HBR
Box + 1 Pan, 10.1 m
Radar Cross Section
13.562 m², Large (>1 m²)

Expand to show TLE details & history
Last TLE update: 11 months ago

TLE from 11 months ago
0 STARLINK-1336
1 45557U 20025AC  25298.36900527  .12948368  12496-4  21372-3 0  9998
2 45557  53.0229 266.6517 0007703 233.2600 126.7743 16.47598051305919
Epoch: 2025-10-25T08:51Z
TLE epoch observation values (Epoch: 2025-10-25T08:51:22.055Z)
Latitude
0.00002°
Longitude
99.80927°
Altitude
149.609 km
Speed
7.816 km/s
True Right ascension
17h 46m 36s
True Declination
0° 00' 00"
Sunlit
Object was in daylight at epoch
Visualization orbit readout
Latitude
Unknown
Longitude
Unknown
Altitude
Unknown
Speed
Unknown
Apparent Right ascension
Unknown
Apparent Declination
Unknown
Sunlit
N/A
Visualization observer readout
Local Sidereal Time
03:41:18
Azimuth
Unknown
Elevation
Unknown
Doppler factor
Unknown
Orbital elements
Apogee altitude
150.986 km
Perigee altitude
140.935 km
Semi-major axis
6,524.098 km
Eccentricity
0.00077
Inclination
53.0229°
RAAN
266.6517°
Arg. of periapsis
233.26°
True anomaly
126.84496°
Mean anomaly
126.7743°
Eccentric anomaly
126.80964°
Mean motion
4.11872 °/min
Orbital period
87.41 mins
BSTAR
0.00021372
Loading maneuver chart data...
Computing Atmospheric mass density...
Loading historical data...
Loading historical data...
Loading historical data...
Loading historical data...
Loading historical data...
Loading historical data...
Loading historical data...

Documentation

Showing up to 5 results
|